| time (UTC) | temp C | wind direction | speed KPH | gust KPH | rain 1hr cm | rain 24hr cm | rain mn cm | humidity % | barometer mb |
| 20260505181447 | 13 | 291 | 6.4 | 9.7 | 0.00 | 0.00 | 0.00 | 31 | 1011.9 |
| 20260505180944 | 13 | 198 | 14.5 | 17.7 | 0.00 | 0.00 | 0.00 | 32 | 1012.0 |
| 20260505180440 | 13 | 280 | 9.7 | 11.3 | 0.00 | 0.00 | 0.00 | 32 | 1012.0 |
| 20260505175937 | 12 | 323 | 6.4 | 9.7 | 0.00 | 0.00 | 0.00 | 32 | 1011.9 |
| 20260505175433 | 12 | 218 | 9.7 | 11.3 | 0.00 | 0.00 | 0.00 | 31 | 1011.9 |
| 20260505174930 | 12 | 259 | 9.7 | 11.3 | 0.00 | 0.00 | 0.00 | 31 | 1012.1 |
| 20260505174427 | 12 | 289 | 6.4 | 11.3 | 0.00 | 0.00 | 0.00 | 32 | 1012.0 |
| 20260505173923 | 12 | 317 | 14.5 | 14.5 | 0.00 | 0.00 | 0.00 | 32 | 1012.1 |
| 20260505173420 | 12 | 303 | 14.5 | 16.1 | 0.00 | 0.00 | 0.00 | 32 | 1012.0 |
| 20260505172917 | 12 | 329 | 1.6 | 1.6 | 0.00 | 0.00 | 0.00 | 32 | 1012.2 |
| 20260505172415 | 11 | 315 | 3.2 | 4.8 | 0.00 | 0.00 | 0.00 | 33 | 1012.2 |
| 20260505171914 | 11 | 296 | 9.7 | 12.9 | 0.00 | 0.00 | 0.00 | 32 | 1012.1 |
| 20260505171411 | 12 | 316 | 17.7 | 17.7 | 0.00 | 0.00 | 0.00 | 33 | 1012.1 |
| 20260505170908 | 11 | 319 | 9.7 | 11.3 | 0.00 | 0.00 | 0.00 | 33 | 1012.3 |
| 20260505170405 | 11 | 336 | 14.5 | 17.7 | 0.00 | 0.00 | 0.00 | 33 | 1012.1 |
| 20260505165900 | 11 | 296 | 14.5 | 17.7 | 0.00 | 0.00 | 0.00 | 33 | 1011.7 |
| 20260505165356 | 12 | 287 | 9.7 | 12.9 | 0.00 | 0.00 | 0.00 | 33 | 1011.8 |
| 20260505164852 | 12 | 332 | 14.5 | 16.1 | 0.00 | 0.00 | 0.00 | 33 | 1012.0 |
| 20260505164348 | 12 | 12 | 6.4 | 9.7 | 0.00 | 0.00 | 0.00 | 31 | 1011.8 |
| 20260505163847 | 12 | 286 | 6.4 | 9.7 | 0.00 | 0.00 | 0.00 | 32 | 1012.0 |
| 20260505163346 | 11 | 317 | 9.7 | 12.9 | 0.00 | 0.00 | 0.00 | 32 | 1011.8 |
| 20260505162844 | 11 | 344 | 4.8 | 9.7 | 0.00 | 0.00 | 0.00 | 32 | 1011.8 |
| 20260505162339 | 11 | 315 | 8.0 | 9.7 | 0.00 | 0.00 | 0.00 | 33 | 1012.0 |
| 20260505161837 | 11 | 302 | 14.5 | 16.1 | 0.00 | 0.00 | 0.00 | 32 | 1012.0 |
| 20260505161334 | 11 | 328 | 9.7 | 14.5 | 0.00 | 0.00 | 0.00 | 32 | 1012.0 |
| 20260505160831 | 11 | 318 | 12.9 | 17.7 | 0.00 | 0.00 | 0.00 | 32 | 1011.9 |
| 20260505160329 | 11 | 303 | 6.4 | 9.7 | 0.00 | 0.00 | 0.00 | 32 | 1012.0 |
| 20260505153308 | 11 | 354 | 6.4 | 9.7 | 0.00 | 0.00 | 0.00 | 32 | 1011.5 |
| 20260505152805 | 11 | 316 | 3.2 | 6.4 | 0.00 | 0.00 | 0.00 | 32 | 1011.2 |
| 20260505152304 | 11 | 347 | 9.7 | 12.9 | 0.00 | 0.00 | 0.00 | 33 | 1011.5 |
| 20260505151755 | 11 | 311 | 9.7 | 11.3 | 0.00 | 0.00 | 0.00 | 32 | 1011.5 |
| 20260505151253 | 11 | 335 | 12.9 | 14.5 | 0.00 | 0.00 | 0.00 | 32 | 1011.4 |
| 20260505150750 | 11 | 327 | 6.4 | 6.4 | 0.00 | 0.00 | 0.00 | 32 | 1011.4 |
| 20260505150247 | 11 | 328 | 9.7 | 12.9 | 0.00 | 0.00 | 0.00 | 32 | 1011.4 |
| 20260505140217 | 10 | 342 | 6.4 | 9.7 | 0.00 | 0.00 | 0.00 | 40 | 1011.3 |
| 20260505130141 | 10 | 307 | 6.4 | 6.4 | 0.00 | 0.00 | 0.00 | 46 | 1011.9 |
| 20260505124630 | 9 | 323 | 3.2 | 4.8 | 0.00 | 0.00 | 0.00 | 51 | 1012.5 |
| 20260505124127 | 8 | 285 | 1.6 | 3.2 | 0.00 | 0.00 | 0.00 | 50 | 1012.4 |
| 20260505123623 | 8 | 294 | 6.4 | 6.4 | 0.00 | 0.00 | 0.00 | 51 | 1012.3 |
| 20260505123120 | 9 | 254 | 0.0 | 1.6 | 0.00 | 0.00 | 0.00 | 49 | 1012.1 |
| 20260505122617 | 9 | 270 | 3.2 | 4.8 | 0.00 | 0.00 | 0.00 | 49 | 1012.1 |
| 20260505122114 | 9 | 347 | 1.6 | 3.2 | 0.00 | 0.00 | 0.00 | 48 | 1012.0 |
| 20260505121610 | 9 | 317 | 0.0 | 0.0 | 0.00 | 0.00 | 0.00 | 48 | 1012.0 |
| 20260505121107 | 8 | 300 | 3.2 | 3.2 | 0.00 | 0.00 | 0.00 | 49 | 1011.8 |
| 20260505120603 | 8 | 326 | 1.6 | 1.6 | 0.00 | 0.00 | 0.00 | 49 | 1011.7 |
| 20260505120059 | 8 | 280 | 1.6 | 1.6 | 0.00 | 0.00 | 0.00 | 48 | 1011.7 |
| 20260505115554 | 8 | 304 | 1.6 | 1.6 | 0.00 | 0.00 | 0.00 | 48 | 1011.7 |
| 20260505115051 | 8 | 309 | 0.0 | 1.6 | 0.00 | 0.00 | 0.00 | 49 | 1011.5 |
| 20260505114548 | 8 | 321 | 0.0 | 0.0 | 0.00 | 0.00 | 0.00 | 49 | 1011.4 |
| 20260505114044 | 8 | 335 | 0.0 | 0.0 | 0.00 | 0.00 | 0.00 | 51 | 1011.1 |
| 20260505113541 | 8 | 350 | 1.6 | 1.6 | 0.00 | 0.00 | 0.00 | 51 | 1010.9 |
| 20260505113037 | 8 | 321 | 3.2 | 4.8 | 0.00 | 0.00 | 0.00 | 50 | 1010.9 |
| 20260505112529 | 8 | 328 | 1.6 | 1.6 | 0.00 | 0.00 | 0.00 | 50 | 1011.1 |
| 20260505112027 | 8 | 319 | 1.6 | 1.6 | 0.00 | 0.00 | 0.00 | 50 | 1011.0 |
| 20260505111525 | 8 | 299 | 3.2 | 4.8 | 0.00 | 0.00 | 0.00 | 50 | 1010.9 |
| 20260505111022 | 8 | 319 | 1.6 | 1.6 | 0.00 | 0.00 | 0.00 | 50 | 1010.5 |
| 20260505110519 | 8 | 330 | 1.6 | 1.6 | 0.00 | 0.00 | 0.00 | 50 | 1010.3 |
| 20260505101951 | 9 | 326 | 4.8 | 6.4 | 0.00 | 0.00 | 0.00 | 44 | 1009.4 |
| 20260505101449 | 9 | 351 | 6.4 | 9.7 | 0.00 | 0.00 | 0.00 | 44 | 1009.6 |
| 20260505100945 | 9 | 333 | 6.4 | 6.4 | 0.00 | 0.00 | 0.00 | 43 | 1009.3 |
| 20260505100443 | 9 | 319 | 9.7 | 11.3 | 0.00 | 0.00 | 0.00 | 43 | 1008.8 |
| 20260505095939 | 9 | 328 | 6.4 | 6.4 | 0.00 | 0.00 | 0.00 | 43 | 1008.8 |
| 20260505095436 | 9 | 352 | 6.4 | 6.4 | 0.00 | 0.00 | 0.00 | 42 | 1008.8 |
| 20260505094932 | 9 | 355 | 11.3 | 14.5 | 0.00 | 0.00 | 0.00 | 42 | 1009.2 |
| 20260505094429 | 10 | 350 | 4.8 | 4.8 | 0.00 | 0.00 | 0.00 | 42 | 1009.0 |
| 20260505093925 | 10 | 337 | 6.4 | 6.4 | 0.00 | 0.00 | 0.00 | 42 | 1009.2 |
| 20260505093422 | 10 | 7 | 6.4 | 9.7 | 0.00 | 0.00 | 0.00 | 42 | 1009.3 |
| 20260505092919 | 10 | 69 | 6.4 | 9.7 | 0.00 | 0.00 | 0.00 | 42 | 1009.9 |
| 20260505092417 | 10 | 333 | 12.9 | 16.1 | 0.00 | 0.00 | 0.00 | 41 | 1009.9 |
| 20260505091914 | 10 | 298 | 19.3 | 24.1 | 0.00 | 0.00 | 0.00 | 41 | 1010.0 |
| 20260505091412 | 10 | 351 | 8.0 | 9.7 | 0.00 | 0.00 | 0.00 | 41 | 1009.6 |
| 20260505090909 | 10 | 276 | 9.7 | 12.9 | 0.00 | 0.00 | 0.00 | 41 | 1009.5 |
| 20260505090408 | 10 | 346 | 9.7 | 12.9 | 0.00 | 0.00 | 0.00 | 43 | 1009.1 |
| 20260505085904 | 10 | 9 | 6.4 | 9.7 | 0.00 | 0.00 | 0.00 | 45 | 1009.1 |
| 20260505085402 | 10 | 320 | 9.7 | 12.9 | 0.00 | 0.00 | 0.00 | 45 | 1008.8 |
| 20260505084900 | 10 | 299 | 4.8 | 9.7 | 0.00 | 0.00 | 0.00 | 45 | 1008.6 |
| 20260505084358 | 10 | 357 | 9.7 | 12.9 | 0.00 | 0.00 | 0.00 | 46 | 1008.7 |
| 20260505083855 | 10 | 330 | 4.8 | 6.4 | 0.00 | 0.00 | 0.00 | 46 | 1008.3 |
| 20260505083353 | 10 | 336 | 11.3 | 14.5 | 0.00 | 0.00 | 0.00 | 46 | 1008.3 |
| 20260505082849 | 10 | 326 | 12.9 | 14.5 | 0.00 | 0.00 | 0.00 | 46 | 1008.8 |
| 20260505082345 | 10 | 349 | 4.8 | 6.4 | 0.00 | 0.00 | 0.00 | 47 | 1009.0 |
| 20260505081842 | 10 | 302 | 19.3 | 24.1 | 0.00 | 0.00 | 0.00 | 45 | 1008.2 |
| 20260505081339 | 10 | 348 | 11.3 | 14.5 | 0.00 | 0.00 | 0.00 | 46 | 1007.7 |
| 20260505080836 | 10 | 308 | 6.4 | 6.4 | 0.00 | 0.00 | 0.00 | 46 | 1008.1 |
| 20260505080331 | 10 | 308 | 11.3 | 14.5 | 0.00 | 0.00 | 0.00 | 46 | 1008.5 |
| 20260505075827 | 10 | 269 | 17.7 | 22.5 | 0.00 | 0.00 | 0.00 | 45 | 1008.7 |
| 20260505075324 | 10 | 321 | 16.1 | 17.7 | 0.00 | 0.00 | 0.00 | 45 | 1008.1 |
| 20260505074821 | 10 | 328 | 19.3 | 24.1 | 0.00 | 0.00 | 0.00 | 45 | 1008.5 |
| 20260505074319 | 10 | 359 | 11.3 | 12.9 | 0.00 | 0.00 | 0.00 | 46 | 1008.6 |
| 20260505073816 | 10 | 311 | 14.5 | 16.1 | 0.00 | 0.00 | 0.00 | 47 | 1008.0 |
| 20260505073314 | 10 | 307 | 4.8 | 6.4 | 0.00 | 0.00 | 0.00 | 47 | 1008.1 |
| 20260505072811 | 10 | 309 | 11.3 | 12.9 | 0.00 | 0.00 | 0.00 | 46 | 1008.0 |
| 20260505072306 | 10 | 325 | 8.0 | 9.7 | 0.00 | 0.00 | 0.00 | 46 | 1007.8 |
| 20260505071802 | 10 | 319 | 14.5 | 16.1 | 0.00 | 0.00 | 0.00 | 45 | 1007.8 |
| 20260505071259 | 10 | 5 | 9.7 | 12.9 | 0.00 | 0.00 | 0.00 | 45 | 1007.4 |
| 20260505070757 | 10 | 290 | 9.7 | 16.1 | 0.00 | 0.00 | 0.00 | 44 | 1007.1 |
| 20260505070254 | 10 | 345 | 19.3 | 24.1 | 0.00 | 0.00 | 0.00 | 44 | 1007.0 |
| 20260505065749 | 10 | 318 | 9.7 | 11.3 | 0.00 | 0.00 | 0.00 | 45 | 1006.9 |
| 20260505065246 | 10 | 359 | 9.7 | 14.5 | 0.00 | 0.00 | 0.00 | 45 | 1007.1 |
| 20260505064743 | 10 | 3 | 12.9 | 17.7 | 0.00 | 0.00 | 0.00 | 46 | 1007.0 |
| 20260505064240 | 10 | 339 | 14.5 | 22.5 | 0.00 | 0.00 | 0.00 | 46 | 1006.8 |
| 20260505063738 | 10 | 348 | 12.9 | 14.5 | 0.00 | 0.00 | 0.00 | 46 | 1006.7 |
| 20260505063234 | 11 | 256 | 11.3 | 16.1 | 0.00 | 0.00 | 0.00 | 46 | 1006.6 |
| 20260505062730 | 11 | 330 | 6.4 | 11.3 | 0.00 | 0.00 | 0.00 | 46 | 1006.8 |
| 20260505062228 | 11 | 324 | 19.3 | 24.1 | 0.00 | 0.00 | 0.00 | 46 | 1006.8 |
| 20260505061725 | 11 | 296 | 11.3 | 12.9 | 0.00 | 0.00 | 0.00 | 47 | 1006.7 |
| 20260505061223 | 11 | 327 | 4.8 | 6.4 | 0.00 | 0.00 | 0.00 | 47 | 1006.6 |
| 20260505060720 | 11 | 311 | 16.1 | 20.9 | 0.00 | 0.00 | 0.00 | 47 | 1006.5 |
| 20260505060217 | 11 | 311 | 20.9 | 22.5 | 0.00 | 0.00 | 0.00 | 47 | 1006.3 |
| 20260505055712 | 11 | 334 | 8.0 | 11.3 | 0.00 | 0.00 | 0.00 | 47 | 1006.1 |
| 20260505055209 | 11 | 346 | 12.9 | 14.5 | 0.00 | 0.00 | 0.00 | 47 | 1005.8 |
| 20260505054706 | 11 | 350 | 12.9 | 16.1 | 0.00 | 0.00 | 0.00 | 47 | 1005.8 |
| 20260505054204 | 11 | 19 | 14.5 | 17.7 | 0.00 | 0.00 | 0.00 | 46 | 1005.6 |
| 20260505053702 | 11 | 351 | 16.1 | 22.5 | 0.00 | 0.00 | 0.00 | 46 | 1005.7 |
| 20260505053158 | 12 | 342 | 9.7 | 12.9 | 0.00 | 0.00 | 0.00 | 46 | 1005.5 |
| 20260505052655 | 12 | 335 | 17.7 | 24.1 | 0.00 | 0.00 | 0.00 | 46 | 1005.8 |
| 20260505052152 | 12 | 310 | 14.5 | 16.1 | 0.00 | 0.00 | 0.00 | 46 | 1005.7 |
| 20260505051649 | 12 | 256 | 14.5 | 16.1 | 0.00 | 0.00 | 0.00 | 46 | 1005.6 |
| 20260505051147 | 12 | 304 | 9.7 | 11.3 | 0.00 | 0.00 | 0.00 | 46 | 1005.8 |
| 20260505050645 | 12 | 320 | 9.7 | 11.3 | 0.00 | 0.00 | 0.00 | 45 | 1005.7 |
| 20260505050143 | 12 | 337 | 12.9 | 16.1 | 0.00 | 0.00 | 0.00 | 45 | 1005.5 |
| 20260505041612 | 13 | 301 | 8.0 | 9.7 | 0.00 | 0.00 | 0.00 | 40 | 1005.3 |
| 20260505041110 | 13 | 312 | 8.0 | 9.7 | 0.00 | 0.00 | 0.00 | 39 | 1005.2 |
| 20260505040607 | 14 | 325 | 6.4 | 9.7 | 0.00 | 0.00 | 0.00 | 39 | 1005.1 |
| 20260505040104 | 14 | 326 | 9.7 | 11.3 | 0.00 | 0.00 | 0.00 | 38 | 1005.5 |
| 20260505035600 | 14 | 336 | 8.0 | 11.3 | 0.00 | 0.00 | 0.00 | 38 | 1005.1 |
| 20260505035057 | 14 | 303 | 8.0 | 11.3 | 0.00 | 0.00 | 0.00 | 38 | 1005.1 |
| 20260505034553 | 14 | 251 | 4.8 | 4.8 | 0.00 | 0.00 | 0.00 | 37 | 1005.1 |
| 20260505034050 | 14 | 308 | 6.4 | 9.7 | 0.00 | 0.00 | 0.00 | 37 | 1005.2 |
| 20260505033547 | 15 | 310 | 6.4 | 9.7 | 0.00 | 0.00 | 0.00 | 37 | 1005.0 |
| 20260505033045 | 15 | 335 | 6.4 | 6.4 | 0.00 | 0.00 | 0.00 | 36 | 1004.8 |
| 20260505032543 | 15 | 323 | 8.0 | 9.7 | 0.00 | 0.00 | 0.00 | 36 | 1005.0 |
| 20260505032039 | 15 | 301 | 8.0 | 11.3 | 0.00 | 0.00 | 0.00 | 36 | 1004.8 |
| 20260505031537 | 15 | 263 | 9.7 | 12.9 | 0.00 | 0.00 | 0.00 | 36 | 1004.9 |
| 20260505031033 | 15 | 335 | 9.7 | 12.9 | 0.00 | 0.00 | 0.00 | 36 | 1004.7 |
| 20260505030530 | 15 | 8 | 12.9 | 14.5 | 0.00 | 0.00 | 0.00 | 35 | 1005.0 |
| 20260505030026 | 15 | 1 | 14.5 | 17.7 | 0.00 | 0.00 | 0.00 | 35 | 1005.0 |
| 20260505025522 | 16 | 314 | 8.0 | 9.7 | 0.00 | 0.00 | 0.00 | 36 | 1005.0 |
| 20260505025021 | 15 | 310 | 9.7 | 11.3 | 0.00 | 0.00 | 0.00 | 36 | 1004.8 |
| 20260505024518 | 16 | 293 | 8.0 | 12.9 | 0.00 | 0.00 | 0.00 | 35 | 1004.8 |
| 20260505024015 | 16 | 320 | 11.3 | 12.9 | 0.00 | 0.00 | 0.00 | 35 | 1004.8 |
| 20260505023511 | 16 | 305 | 8.0 | 9.7 | 0.00 | 0.00 | 0.00 | 36 | 1004.6 |
| 20260505023009 | 16 | 322 | 4.8 | 4.8 | 0.00 | 0.00 | 0.00 | 36 | 1004.4 |
| 20260505022507 | 16 | 343 | 8.0 | 11.3 | 0.00 | 0.00 | 0.00 | 36 | 1004.3 |
| 20260505022004 | 16 | 336 | 6.4 | 9.7 | 0.00 | 0.00 | 0.00 | 35 | 1003.9 |
| 20260505021500 | 16 | 309 | 9.7 | 16.1 | 0.00 | 0.00 | 0.00 | 35 | 1004.1 |
| 20260505020955 | 17 | 328 | 16.1 | 20.9 | 0.00 | 0.00 | 0.00 | 35 | 1003.8 |
| 20260505020451 | 17 | 309 | 12.9 | 14.5 | 0.00 | 0.00 | 0.00 | 35 | 1003.7 |
| 20260505015948 | 17 | 314 | 12.9 | 14.5 | 0.00 | 0.00 | 0.00 | 36 | 1003.4 |
| 20260505015446 | 17 | 3 | 6.4 | 9.7 | 0.00 | 0.00 | 0.00 | 37 | 1003.3 |
| 20260505014942 | 17 | 305 | 8.0 | 12.9 | 0.00 | 0.00 | 0.00 | 37 | 1003.2 |
| 20260505014439 | 17 | 313 | 16.1 | 20.9 | 0.00 | 0.00 | 0.00 | 36 | 1003.2 |
| 20260505013937 | 17 | 310 | 11.3 | 14.5 | 0.00 | 0.00 | 0.00 | 36 | 1002.9 |
| 20260505013433 | 18 | 343 | 14.5 | 22.5 | 0.00 | 0.00 | 0.00 | 36 | 1002.7 |
| 20260505012931 | 18 | 308 | 9.7 | 11.3 | 0.00 | 0.00 | 0.00 | 37 | 1002.7 |
| 20260505012429 | 18 | 1 | 9.7 | 12.9 | 0.00 | 0.00 | 0.00 | 37 | 1002.6 |
| 20260505011925 | 18 | 342 | 12.9 | 16.1 | 0.00 | 0.00 | 0.00 | 36 | 1002.4 |
| 20260505011422 | 18 | 339 | 16.1 | 16.1 | 0.00 | 0.00 | 0.00 | 36 | 1002.2 |
| 20260505010918 | 18 | 345 | 20.9 | 27.4 | 0.00 | 0.00 | 0.00 | 35 | 1002.1 |
| 20260505010414 | 19 | 316 | 17.7 | 20.9 | 0.00 | 0.00 | 0.00 | 35 | 1001.9 |
| 20260505005910 | 20 | 333 | 12.9 | 16.1 | 0.00 | 0.00 | 0.00 | 35 | 1001.9 |
| 20260505005407 | 20 | 16 | 14.5 | 16.1 | 0.00 | 0.00 | 0.00 | 35 | 1001.7 |
| 20260505004905 | 20 | 213 | 14.5 | 17.7 | 0.00 | 0.00 | 0.00 | 35 | 1001.6 |
| 20260505004401 | 20 | 319 | 19.3 | 25.7 | 0.00 | 0.00 | 0.00 | 34 | 1001.4 |
| 20260505003858 | 21 | 312 | 14.5 | 20.9 | 0.00 | 0.00 | 0.00 | 34 | 1001.1 |
| 20260505003355 | 21 | 321 | 12.9 | 16.1 | 0.00 | 0.00 | 0.00 | 33 | 1001.0 |
| 20260505002852 | 21 | 19 | 8.0 | 11.3 | 0.00 | 0.00 | 0.00 | 33 | 1001.0 |
| 20260505002348 | 21 | 335 | 14.5 | 17.7 | 0.00 | 0.00 | 0.00 | 33 | 1000.6 |
| 20260505001847 | 21 | 313 | 22.5 | 25.7 | 0.00 | 0.00 | 0.00 | 32 | 1000.6 |
| 20260505001344 | 22 | 293 | 14.5 | 17.7 | 0.00 | 0.00 | 0.00 | 32 | 1000.3 |
| 20260505000841 | 22 | 345 | 14.5 | 17.7 | 0.00 | 0.00 | 0.00 | 32 | 1000.3 |
| 20260505000338 | 22 | 300 | 22.5 | 30.6 | 0.00 | 0.00 | 0.00 | 33 | 1000.2 |
| 20260504235835 | 22 | 25 | 22.5 | 25.7 | 0.00 | 0.00 | 0.00 | 33 | 999.9 |
| 20260504235332 | 22 | 280 | 6.4 | 9.7 | 0.00 | 0.00 | 0.00 | 33 | 999.8 |
| 20260504234828 | 23 | 304 | 19.3 | 22.5 | 0.00 | 0.00 | 0.00 | 32 | 999.6 |
| 20260504234326 | 23 | 324 | 19.3 | 24.1 | 0.00 | 0.00 | 0.00 | 32 | 999.6 |
| 20260504233822 | 23 | 319 | 17.7 | 20.9 | 0.00 | 0.00 | 0.00 | 32 | 999.4 |
| 20260504233318 | 23 | 7 | 16.1 | 20.9 | 0.00 | 0.00 | 0.00 | 32 | 999.4 |
| 20260504232815 | 24 | 325 | 19.3 | 24.1 | 0.00 | 0.00 | 0.00 | 32 | 999.5 |
| 20260504232312 | 24 | 331 | 19.3 | 22.5 | 0.00 | 0.00 | 0.00 | 32 | 999.4 |
| 20260504231809 | 25 | 311 | 27.4 | 30.6 | 0.00 | 0.00 | 0.00 | 32 | 999.0 |
| 20260504231306 | 25 | 318 | 22.5 | 27.4 | 0.00 | 0.00 | 0.00 | 32 | 999.3 |
| 20260504230802 | 25 | 29 | 16.1 | 22.5 | 0.00 | 0.00 | 0.00 | 32 | 999.0 |
| 20260504230300 | 25 | 326 | 24.1 | 29.0 | 0.00 | 0.00 | 0.00 | 32 | 999.2 |
| 20260504225758 | 25 | 309 | 19.3 | 24.1 | 0.00 | 0.00 | 0.00 | 33 | 998.9 |
| 20260504225254 | 25 | 320 | 22.5 | 27.4 | 0.00 | 0.00 | 0.00 | 33 | 998.9 |
| 20260504224752 | 26 | 332 | 12.9 | 16.1 | 0.00 | 0.00 | 0.00 | 33 | 999.0 |
| 20260504224249 | 26 | 314 | 8.0 | 11.3 | 0.00 | 0.00 | 0.00 | 34 | 998.9 |
| 20260504223745 | 25 | 322 | 9.7 | 12.9 | 0.00 | 0.00 | 0.00 | 36 | 998.9 |
| 20260504223241 | 25 | 347 | 9.7 | 14.5 | 0.00 | 0.00 | 0.00 | 36 | 998.7 |
| 20260504222738 | 26 | 282 | 11.3 | 16.1 | 0.00 | 0.00 | 0.00 | 35 | 998.6 |
| 20260504222234 | 25 | 241 | 14.5 | 16.1 | 0.00 | 0.00 | 0.00 | 35 | 998.0 |
| 20260504221732 | 26 | 1 | 16.1 | 22.5 | 0.00 | 0.00 | 0.00 | 35 | 998.2 |
| 20260504221229 | 26 | 274 | 9.7 | 11.3 | 0.00 | 0.00 | 0.00 | 33 | 998.1 |
| 20260504220725 | 26 | 248 | 9.7 | 11.3 | 0.00 | 0.00 | 0.00 | 33 | 997.9 |
| 20260504220223 | 26 | 275 | 14.5 | 16.1 | 0.00 | 0.00 | 0.00 | 36 | 998.3 |
| 20260504215720 | 26 | 311 | 12.9 | 16.1 | 0.00 | 0.00 | 0.00 | 33 | 998.5 |
| 20260504215217 | 26 | 333 | 14.5 | 20.9 | 0.00 | 0.00 | 0.00 | 31 | 998.3 |
| 20260504214712 | 26 | 328 | 8.0 | 9.7 | 0.00 | 0.00 | 0.00 | 30 | 998.2 |
| 20260504214209 | 27 | 311 | 9.7 | 14.5 | 0.00 | 0.00 | 0.00 | 30 | 998.3 |
| 20260504213706 | 27 | 259 | 11.3 | 12.9 | 0.00 | 0.00 | 0.00 | 30 | 998.5 |
| 20260504213202 | 27 | 254 | 9.7 | 12.9 | 0.00 | 0.00 | 0.00 | 30 | 998.6 |
| 20260504212659 | 27 | 305 | 14.5 | 20.9 | 0.00 | 0.00 | 0.00 | 30 | 998.4 |
| 20260504212156 | 27 | 271 | 8.0 | 14.5 | 0.00 | 0.00 | 0.00 | 30 | 998.5 |
| 20260504211653 | 27 | 277 | 12.9 | 17.7 | 0.00 | 0.00 | 0.00 | 29 | 998.5 |
| 20260504211149 | 27 | 355 | 12.9 | 14.5 | 0.00 | 0.00 | 0.00 | 30 | 998.6 |
| 20260504210647 | 27 | 261 | 12.9 | 17.7 | 0.00 | 0.00 | 0.00 | 30 | 998.6 |
| 20260504210143 | 27 | 272 | 16.1 | 24.1 | 0.00 | 0.00 | 0.00 | 30 | 998.7 |
| 20260504205641 | 27 | 245 | 16.1 | 25.7 | 0.00 | 0.00 | 0.00 | 30 | 998.7 |
| 20260504205138 | 27 | 263 | 30.6 | 40.2 | 0.00 | 0.00 | 0.00 | 29 | 998.8 |
| 20260504204637 | 27 | 275 | 14.5 | 16.1 | 0.00 | 0.00 | 0.00 | 29 | 998.9 |
| 20260504204135 | 27 | 55 | 9.7 | 12.9 | 0.00 | 0.00 | 0.00 | 29 | 998.8 |
| 20260504203634 | 27 | 350 | 9.7 | 12.9 | 0.00 | 0.00 | 0.00 | 29 | 998.7 |
| 20260504203131 | 28 | 284 | 16.1 | 22.5 | 0.00 | 0.00 | 0.00 | 29 | 998.7 |
| 20260504202631 | 28 | 328 | 8.0 | 11.3 | 0.00 | 0.00 | 0.00 | 29 | 999.0 |
| 20260504202128 | 27 | 289 | 11.3 | 16.1 | 0.00 | 0.00 | 0.00 | 30 | 999.2 |
| 20260504201625 | 27 | 296 | 6.4 | 6.4 | 0.00 | 0.00 | 0.00 | 30 | 999.0 |
| 20260504201123 | 27 | 259 | 9.7 | 14.5 | 0.00 | 0.00 | 0.00 | 30 | 999.2 |
| 20260504200620 | 28 | 205 | 8.0 | 14.5 | 0.00 | 0.00 | 0.00 | 28 | 999.5 |
| 20260504200116 | 28 | 231 | 11.3 | 14.5 | 0.00 | 0.00 | 0.00 | 29 | 999.5 |
| 20260504195612 | 27 | 250 | 9.7 | 12.9 | 0.00 | 0.00 | 0.00 | 29 | 999.6 |
| 20260504195108 | 27 | 320 | 11.3 | 14.5 | 0.00 | 0.00 | 0.00 | 29 | 999.4 |
| 20260504194605 | 27 | 310 | 12.9 | 16.1 | 0.00 | 0.00 | 0.00 | 30 | 999.6 |
| 20260504194101 | 27 | 249 | 22.5 | 27.4 | 0.00 | 0.00 | 0.00 | 30 | 999.6 |
| 20260504193558 | 27 | 276 | 9.7 | 11.3 | 0.00 | 0.00 | 0.00 | 30 | 999.7 |
| 20260504193056 | 26 | 314 | 6.4 | 11.3 | 0.00 | 0.00 | 0.00 | 31 | 999.7 |
| 20260504192554 | 27 | 308 | 8.0 | 14.5 | 0.00 | 0.00 | 0.00 | 30 | 999.8 |
| 20260504192052 | 26 | 209 | 9.7 | 14.5 | 0.00 | 0.00 | 0.00 | 30 | 999.8 |
| 20260504191550 | 26 | 246 | 16.1 | 20.9 | 0.00 | 0.00 | 0.00 | 31 | 999.9 |
| 20260504191046 | 27 | 297 | 19.3 | 22.5 | 0.00 | 0.00 | 0.00 | 30 | 999.7 |
| 20260504190542 | 27 | 284 | 9.7 | 11.3 | 0.00 | 0.00 | 0.00 | 30 | 999.8 |
| 20260504190038 | 27 | 251 | 8.0 | 11.3 | 0.00 | 0.00 | 0.00 | 30 | 999.8 |
| 20260504185536 | 27 | 318 | 17.7 | 27.4 | 0.00 | 0.00 | 0.00 | 30 | 999.7 |
| 20260504185032 | 27 | 278 | 8.0 | 11.3 | 0.00 | 0.00 | 0.00 | 30 | 999.9 |
| 20260504184527 | 27 | 276 | 9.7 | 17.7 | 0.00 | 0.00 | 0.00 | 30 | 1000.0 |
| 20260504184023 | 27 | 156 | 9.7 | 12.9 | 0.00 | 0.00 | 0.00 | 29 | 1000.0 |
| 20260504183520 | 27 | 324 | 8.0 | 11.3 | 0.00 | 0.00 | 0.00 | 29 | 999.9 |
| 20260504183019 | 27 | 301 | 19.3 | 27.4 | 0.00 | 0.00 | 0.00 | 29 | 999.9 |
| 20260504182515 | 27 | 315 | 12.9 | 22.5 | 0.00 | 0.00 | 0.00 | 29 | 1000.1 |
| 20260504182012 | 27 | 261 | 9.7 | 16.1 | 0.00 | 0.00 | 0.00 | 29 | 1000.1 |